Regional Weather Roundup
Issued by NWS

Home | Current Version | Previous Version | Graphics & Text | Print | Product List | Glossary On
Versions: 1 2 3 4 5 6 7 8 9 10 11 12 13 14 15 16 17 18 19 20 21 22 23 24 25 26 27 28 29 30 31 32 33 34 35 36 37 38 39 40 41 42 43 44 45 46 47 48 49 50
000
ASUS43 KBIS 270202
RWRND

NORTH DAKOTA REGIONAL WEATHER ROUNDUP
NATIONAL WEATHER SERVICE BISMARCK ND
900 PM CDT THU MAY 26 2016

NOTE: "FAIR" INDICATES FEW OR NO CLOUDS BELOW 12,000 FEET WITH NO
SIGNIFICANT WEATHER AND/OR OBSTRUCTIONS TO VISIBILITY.


NDZ001>003-009>011-017-270300-
NORTHWEST NORTH DAKOTA

CITY           SKY/WX    TMP DP  RH WIND       PRES   REMARKS
WILLISTON      CLOUDY    58  48  69 NE8       29.82R
MINOT          CLOUDY    57  51  80 W6        29.80F
MINOT AFB      CLOUDY    60  55  83 N8        29.79F
$$

NDZ018>021-031>035-040>046-270300-
SOUTHWEST NORTH DAKOTA

CITY           SKY/WX    TMP DP  RH WIND       PRES   REMARKS
BISMARCK       CLEAR     65  48  54 N7        29.78R
DICKINSON      CLEAR     56  42  59 W8        29.81R
GARRISON         N/A     56  50  80 N10       29.79S
HETTINGER ARPT CLEAR     56  43  61 NW8       29.83S
$$

NDZ004>008-012>016-024-026-027-054-270300-
NORTHEAST NORTH DAKOTA

CITY           SKY/WX    TMP DP  RH WIND       PRES   REMARKS
GRAND FORKS    PTCLDY    63  55  75 NW6       29.78R
GRND FRKS AFB  CLEAR     63  54  72 NW2       29.79R
DEVILS LAKE    LGT RAIN  59  54  83 W6        29.79R
$$

NDZ022-023-025-028>030-036>039-047>053-270300-
SOUTHEAST NORTH DAKOTA

CITY           SKY/WX    TMP DP  RH WIND       PRES   REMARKS
FARGO          PTCLDY    69  56  62 CALM      29.76R
JAMESTOWN      CLOUDY    66  55  67 N12       29.78R
$$





USA.gov is the U.S. government's official web portal to all federal, state and local government web resources and services.